Regional Weather Roundup
Issued by NWS Albany, NY

Home | Current Version | Previous Version | Graphics & Text | Print | Product List | Glossary Off
Versions: 1 2 3 4 5 6 7 8 9 10 11 12 13 14 15 16 17 18 19 20 21 22 23 24 25 26 27 28 29 30 31 32 33 34 35 36 37 38 39 40 41 42 43 44 45 46 47 48 49 50

442
ASUS41 KALY 261210
RWRALY

NEW YORK STATE HOURLY WEATHER ROUNDUP
NATIONAL WEATHER SERVICE ALBANY NY
800 AM EDT TUE JUL 26 2016

NOTE: "FAIR" INDICATES FEW OR NO CLOUDS BELOW 12,000 FEET WITH NO
SIGNIFICANT WEATHER AND/OR NO OBSTRUCTIONS TO VISIBILITY.

NYZ032-033-038>043-046>054-057>066-NYZ062>081-082-084-261300-
EAST


CITY           SKY/WX    TMP DP  RH WIND       PRES   REMARKS
ALBANY         MOSUNNY   75  66  73 SW6       29.88S
GLENS FALLS    SUNNY     74  65  73 SW7       29.85R
POUGHKEEPSIE   SUNNY     75  69  81 VRB3      29.89R
NEWBURGH       MOSUNNY   72  70  94 W7        29.93R
MONTGOMERY     MOSUNNY   73  70  90 SW6       29.92R
WHITE PLAINS   SUNNY     74  69  85 VRB6      29.91R
ISLIP          MOSUNNY   76  70  82 NW10      29.89R
NEW YORK CITY  MOSUNNY   77  69  76 NW8       29.91R
CENTRAL PARK   SUNNY     74  68  81 VRB5      29.94R
$$

NYZ005>009-017-018-044>046-055-056-261300-
CENTRAL


CITY           SKY/WX    TMP DP  RH WIND       PRES   REMARKS
FULTON         MOSUNNY   74  65  73 W10       29.93R
SYRACUSE       MOSUNNY   71  66  84 W14       29.93R
ROME           PTSUNNY   69  66  90 NW12      29.93R
ELMIRA         MOSUNNY   68  66  93 SW7       29.97S FOG
BINGHAMTON     SUNNY     68  64  87 W6        29.98S
MONTICELLO     PTSUNNY   68  68 100 W6        29.98R
$$

NYZ026>034-041>043-087-261300-
NORTH


CITY           SKY/WX    TMP DP  RH WIND       PRES   REMARKS
WATERTOWN      CLOUDY    70  61  73 W7        29.90R
FORT DRUM      NOT AVBL
MASSENA        SUNNY     71  62  73 W9        29.85R
SARANAC LAKE   CLOUDY    66  60  81 SW7       29.89R
PLATTSBURGH    MOSUNNY   75  63  66 SW7       29.81R
$$

NYZ001>004-010>016-019>021-085-261300-
WEST


CITY           SKY/WX    TMP DP  RH WIND       PRES   REMARKS
NIAGARA FALLS  MOSUNNY   70  59  68 W9        30.00R
BUFFALO        MOSUNNY   70  59  68 NW9       30.00R
DUNKIRK        SUNNY     71  60  68 NW8       30.02S
JAMESTOWN      SUNNY     66  57  72 NW7       30.05S
WELLSVILLE     SUNNY     68  60  75 W10       30.06R
ROCHESTER      MOSUNNY   69  63  81 W9        29.98R
PENN YAN       MOSUNNY   71  62  73 VRB5      29.99R
$$

             KEY
       WCI = WIND CHILL INDEX
       VSB = VISIBILITY
       HX  = HEAT INDEX
$$




USA.gov is the U.S. government's official web portal to all federal, state and local government web resources and services.